TimeMDT,TemperatureF,Dew PointF,Humidity,Sea Level PressureIn,VisibilityMPH,Wind Direction,Wind SpeedMPH,Gust SpeedMPH,PrecipitationIn,Events,Conditions,WindDirDegrees,DateUTC
12:53 AM,59.0,28.9,32,30.06,10.0,SW,5.8,-,N/A,,Clear,220,2012-09-22 06:53:00
1:53 AM,55.9,30.0,37,30.08,10.0,WSW,8.1,-,N/A,,Clear,250,2012-09-22 07:53:00
2:53 AM,54.0,32.0,43,30.09,10.0,WSW,8.1,-,N/A,,Clear,250,2012-09-22 08:53:00
3:53 AM,54.0,30.9,41,30.10,10.0,SW,4.6,-,N/A,,Clear,220,2012-09-22 09:53:00
4:53 AM,48.0,30.9,52,30.11,10.0,SSE,5.8,-,N/A,,Clear,160,2012-09-22 10:53:00
5:53 AM,45.0,30.9,58,30.15,10.0,SSE,10.4,-,N/A,,Clear,160,2012-09-22 11:53:00
6:53 AM,46.4,30.2,53,30.32,10.0,South,8.1,-,N/A,,Clear,170,2012-09-22 12:53:00
7:53 AM,52.0,34.0,50,30.19,9.0,WSW,8.1,-,N/A,,Clear,240,2012-09-22 13:53:00
8:53 AM,55.0,35.1,47,30.20,8.0,WSW,6.9,-,N/A,,Clear,240,2012-09-22 14:53:00
9:53 AM,59.0,34.0,39,30.19,9.0,SW,4.6,-,N/A,,Clear,230,2012-09-22 15:53:00
10:53 AM,64.0,32.0,30,30.17,10.0,SSW,6.9,-,N/A,,Clear,200,2012-09-22 16:53:00
11:53 AM,69.1,32.0,25,30.13,10.0,Calm,Calm,-,N/A,,Partly Cloudy,0,2012-09-22 17:53:00
12:53 PM,73.9,30.9,21,30.07,10.0,ESE,5.8,-,N/A,,Partly Cloudy,120,2012-09-22 18:53:00
1:53 PM,78.1,30.0,17,30.04,10.0,SE,15.0,20.7,N/A,,Partly Cloudy,130,2012-09-22 19:53:00
2:53 PM,79.0,30.0,17,30.01,10.0,SE,8.1,18.4,N/A,,Partly Cloudy,130,2012-09-22 20:53:00
3:53 PM,80.1,30.9,17,29.99,10.0,ESE,13.8,-,N/A,,Partly Cloudy,120,2012-09-22 21:53:00
4:53 PM,79.0,30.9,17,30.01,10.0,SE,17.3,-,N/A,,Partly Cloudy,130,2012-09-22 22:53:00
5:53 PM,75.9,32.0,20,30.02,10.0,SE,17.3,-,N/A,,Scattered Clouds,140,2012-09-22 23:53:00
6:53 PM,70.0,33.1,26,30.04,10.0,SSE,13.8,-,N/A,,Scattered Clouds,150,2012-09-23 00:53:00
7:53 PM,64.0,34.0,33,30.07,10.0,South,11.5,-,N/A,,Scattered Clouds,170,2012-09-23 01:53:00
8:53 PM,62.1,33.1,34,30.07,10.0,South,13.8,-,N/A,,Scattered Clouds,170,2012-09-23 02:53:00
9:53 PM,59.0,34.0,39,30.08,10.0,South,13.8,-,N/A,,Scattered Clouds,170,2012-09-23 03:53:00
10:53 PM,61.0,34.0,36,30.05,10.0,South,15.0,-,N/A,,Partly Cloudy,170,2012-09-23 04:53:00
11:53 PM,59.0,34.0,39,30.05,10.0,South,12.7,-,N/A,,Scattered Clouds,180,2012-09-23 05:53:00